Regional Weather Roundup
Issued by NWS

Home | Current Version | Previous Version | Text Only | Print | Product List | Glossary On
Versions: 1 2 3 4 5 6 7 8 9 10 11 12 13 14 15 16 17 18 19 20 21 22 23 24 25 26 27 28 29 30 31 32 33 34 35 36 37 38 39 40 41 42 43 44 45 46 47 48 49 50
000
ASUS43 KTOP 250908
RWRKS

WEATHER ROUNDUP FOR KANSAS
NATIONAL WEATHER SERVICE GOODLAND KS
300 AM CST SAT NOV 25 2017

NOTE:  "FAIR" INDICATES FEW OR NO CLOUDS BELOW 12,000 FEET WITH NO
SIGNIFICANT WEATHER AND/OR OBSTRUCTIONS TO VISIBILITY.

KSZ001>006-013>018-027>032-041>047-251000-
NORTHWEST KANSAS

CITY           SKY/WX    TMP DP  RH WIND       PRES   REMARKS
GOODLAND       CLEAR     32  28  85 SW6       30.11R
HAYS           CLEAR     38  30  73 NE3       30.08S
HILL CITY      PTCLDY    38  31  76 N9        30.10R
RUSSELL        CLEAR     40  32  73 NW7       30.07R
$$

KSZ061>065-074>080-084>089-251000-
SOUTHWEST KANSAS

CITY           SKY/WX    TMP DP  RH WIND       PRES   REMARKS
DODGE CITY     CLOUDY    46  34  62 NE10      30.08R
ELKHART        CLEAR     44  38  79 NW6       30.09R
GARDEN CITY    CLEAR     44  34  67 NE9       30.09R
GREAT BEND     CLEAR     42  33  70 N5        30.09R
LIBERAL        CLEAR     41  35  79 N9        30.07R
PRATT          CLEAR     49  32  52 NE13      30.06R
$$

KSZ066>073-081>083-090>101-251000-
SOUTHEAST KANSAS

CITY           SKY/WX    TMP DP  RH WIND       PRES   REMARKS
CHANUTE        CLOUDY    53  37  54 N13       30.01R
COFFEYVILLE    MOCLDY    58  39  49 N15       29.99R
HUTCHINSON     CLEAR     48  34  58 N3        30.05R
MEDICINE LODGE   N/A     54  37  52 NE17G25   30.00S
NEWTON         CLEAR     47  33  58 NE8       30.05R
PARSONS        CLOUDY    56  39  53 N10G18    30.00R
WICHITA INTL   PTCLDY    54  34  46 NE21      30.03R
WICHITA JABRA  CLOUDY    49  35  58 NE8       30.04R
WICHITA MCCONL PTCLDY    52  33  47 NE18      30.02R
WINFIELD       PTCLDY    56  37  49 NE15G24   30.01R
$$

KSZ007>012-019>026-033>040-048>060-102>105-251000-
NORTHEAST KANSAS

CITY           SKY/WX    TMP DP  RH WIND       PRES   REMARKS
CONCORDIA      CLEAR     39  33  79 W6        30.06R
EMPORIA        CLEAR     47  34  60 N9        30.03R
LAWRENCE       CLEAR     41  35  79 NW5       30.02S
MANHATTAN      CLEAR     42  34  73 CALM      30.03F
MARYSVILLE     CLEAR     36  32  87 N6        30.04R
OLATHE IND     CLEAR     42  36  79 N8        30.02R
OLATHE EXE     CLEAR     46  36  68 N6        30.01R
SALINA         CLEAR     43  34  70 NW6       30.06R
TOPEKA BILLARD CLEAR     47  37  68 N5        30.02S
TOPEKA FORBES  CLEAR     44  35  70 N8        30.01F
$$



USA.gov is the U.S. government's official web portal to all federal, state and local government web resources and services.